Location: Caltech
(34.1382°N, 118.1253°W)
Time: 15:52:04
(UTC-08:00)

Sapphire - Visible Passes

Search period start: 07 February 2016 00:00
Search period end: 17 February 2016 00:00
Orbit: 785 x 797 km, 67.1° (Epoch: 06 February)

Date Brightness Start Highest point End Pass type
(mag) Time Alt. Az. Time Alt. Az. Time Alt. Az.
08 Feb ? 20:27:59 10° NNW 20:28:20 12° NNW 20:28:20 12° NNW visible
09 Feb ? 19:57:28 10° NNW 19:59:09 20° N 19:59:09 20° N visible
10 Feb ? 19:27:03 10° N 19:30:06 29° NNE 19:30:06 29° NNE visible
11 Feb ? 18:56:44 10° N 19:01:13 29° NE 19:01:13 29° NE visible
11 Feb ? 20:39:58 10° NW 20:42:01 21° WNW 20:42:01 21° WNW visible
12 Feb ? 18:26:33 10° N 18:30:40 21° NE 18:32:34 18° E visible
12 Feb ? 20:09:05 10° NW 20:13:24 43° W 20:13:24 43° W visible
13 Feb ? 17:56:34 10° NNE 17:59:50 16° NE 18:03:05 10° E visible
13 Feb ? 19:38:20 10° NNW 19:43:44 68° WSW 19:45:05 49° S visible
14 Feb ? 19:07:42 10° NNW 19:13:10 85° ENE 19:17:13 18° SSE visible
15 Feb ? 18:37:09 10° NNW 18:42:32 61° ENE 18:47:53 10° SE visible
15 Feb ? 20:22:30 10° WNW 20:25:21 14° WSW 20:28:12 10° SW visible
16 Feb ? 18:06:42 10° NNW 18:11:53 43° ENE 18:17:01 10° SE visible
16 Feb ? 19:50:56 10° WNW 19:54:56 21° WSW 19:58:54 10° SSW visible
